User: anonymous   Login
Location: Homewood
(41.1836°S, 175.9581°E)
Time: 07:51:04
(UTC+00:00)
Language:

Cosmos 2369 Rocket - Orbit

View from above orbital plane
View from above orbital plane
View from above satellite
View from above satellite

Ground track
Ground track

The orbit is defined by the following mean orbital elements,

1 26070U          26111.96841963 +.00000000 +00000-0 +79683-4 0 00002
2 26070  71.0044   6.8361 0014682 119.6888 240.5699 14.15828703    03
Epoch (UTC): 21 April 2026 23:14:31
Eccentricity: 0.0014682
inclination: 71.0044°
perigee height: 829 km
apogee height: 850 km
right ascension of ascending node: 6.8361°
argument of perigee: 119.6888°
revolutions per day: 14.15828703
mean anomaly at epoch: 240.5699°

The dashed part of the orbit path shows where the satellite is in the earth's shadow,  

DLR